User: anonymous   Login
Location: Drummondville
(45.8830°N, 72.4830°W)
Time: 18:13:09
(UTC-05:00)
Language:

N. Korean satellite - Orbit

View from above orbital plane
View from above orbital plane
View from above satellite
View from above satellite

Ground track
Ground track

The orbit data is extracted from the following two-line orbital elements,

1 39026U 12072A   17325.54372776  .00002825  00000-0  10995-3 0  9995
2 39026  97.2171 338.0096 0039378 342.1964  17.7892 15.26096659273989
Epoch (UTC): 21 November 2017 13:02:58
Eccentricity: 0.0039378
inclination: 97.2171°
perigee height: 460 km
apogee height: 514 km
right ascension of ascending node: 338.0096°
argument of perigee: 342.1964°
revolutions per day: 15.26096659
mean anomaly at epoch: 17.7892°
orbit number at epoch: 27398

The dashed part of the orbit path shows where the satellite is in the earth's shadow,  

DLR